Time,TemperatureF,DewpointF,PressureIn,WindDirection,WindDirectionDegrees,WindSpeedMPH,WindSpeedGustMPH,Humidity,HourlyPrecipIn,Conditions,Clouds,dailyrainin,SoftwareType,DateUTC
2013-08-30 00:00:00,79.8,75.9,29.96,WNW,302,0.0,0.0,88,0.00,,,0.20,Wunderground v.1.15,2013-08-30 07:00:00,
2013-08-30 00:05:00,79.6,75.4,29.96,WNW,302,0.0,1.0,87,0.00,,,0.20,Wunderground v.1.15,2013-08-30 07:05:00,
2013-08-30 00:10:00,79.7,75.5,29.96,WNW,302,0.0,0.0,87,0.00,,,0.20,Wunderground v.1.15,2013-08-30 07:10:00,
2013-08-30 00:15:00,79.9,75.7,29.96,WNW,302,0.0,0.0,87,0.00,,,0.20,Wunderground v.1.15,2013-08-30 07:15:00,
2013-08-30 00:20:00,79.9,75.7,29.96,WNW,302,0.0,0.0,87,0.00,,,0.20,Wunderground v.1.15,2013-08-30 07:20:00,
2013-08-30 00:25:00,79.9,75.7,29.96,WNW,302,0.0,0.0,87,0.00,,,0.20,Wunderground v.1.15,2013-08-30 07:25:00,
2013-08-30 00:30:00,79.9,76.0,29.96,WNW,302,0.0,0.0,88,0.00,,,0.20,Wunderground v.1.15,2013-08-30 07:30:00,
2013-08-30 00:35:00,80.0,76.1,29.96,WSW,247,0.0,1.0,88,0.00,,,0.20,Wunderground v.1.15,2013-08-30 07:35:00,
2013-08-30 00:40:00,80.3,75.7,29.96,WSW,245,0.0,0.0,86,0.00,,,0.20,Wunderground v.1.15,2013-08-30 07:40:00,
2013-08-30 00:45:00,80.5,76.3,29.96,WSW,245,0.0,0.0,87,0.00,,,0.20,Wunderground v.1.15,2013-08-30 07:45:00,
2013-08-30 00:50:00,80.5,76.6,29.96,WSW,246,0.0,0.0,88,0.00,,,0.20,Wunderground v.1.15,2013-08-30 07:50:00,
2013-08-30 00:55:00,80.2,76.3,29.96,WSW,246,0.0,0.0,88,0.00,,,0.20,Wunderground v.1.15,2013-08-30 07:55:00,
2013-08-30 01:00:00,80.0,76.5,29.96,WSW,245,0.0,0.0,89,0.00,,,0.00,Wunderground v.1.15,2013-08-30 08:00:00,
2013-08-30 01:05:00,79.7,76.2,29.96,WSW,245,0.0,0.0,89,0.00,,,0.00,Wunderground v.1.15,2013-08-30 08:05:00,
2013-08-30 01:10:00,79.4,75.9,29.96,WSW,245,0.0,0.0,89,0.00,,,0.00,Wunderground v.1.15,2013-08-30 08:10:00,
2013-08-30 01:15:00,79.2,75.7,29.95,WSW,245,0.0,0.0,89,0.00,,,0.00,Wunderground v.1.15,2013-08-30 08:15:00,
2013-08-30 01:20:00,79.4,75.9,29.95,WSW,245,0.0,0.0,89,0.00,,,0.00,Wunderground v.1.15,2013-08-30 08:20:00,
2013-08-30 01:25:00,79.6,76.1,29.95,WSW,245,0.0,0.0,89,0.00,,,0.00,Wunderground v.1.15,2013-08-30 08:25:00,
2013-08-30 01:30:00,79.6,75.7,29.95,WSW,245,0.0,0.0,88,0.00,,,0.00,Wunderground v.1.15,2013-08-30 08:30:00,
2013-08-30 01:35:00,79.8,75.6,29.95,WSW,246,0.0,0.0,87,0.00,,,0.00,Wunderground v.1.15,2013-08-30 08:35:00,
2013-08-30 01:40:00,79.9,75.7,29.95,WSW,246,0.0,0.0,87,0.00,,,0.00,Wunderground v.1.15,2013-08-30 08:40:00,
2013-08-30 01:45:00,80.1,75.5,29.95,WSW,245,0.0,0.0,86,0.00,,,0.00,Wunderground v.1.15,2013-08-30 08:45:00,
2013-08-30 01:50:00,80.2,75.6,29.95,WSW,245,0.0,0.0,86,0.00,,,0.00,Wunderground v.1.15,2013-08-30 08:50:00,
2013-08-30 01:55:00,80.6,76.4,29.94,WSW,245,0.0,0.0,87,0.00,,,0.00,Wunderground v.1.15,2013-08-30 08:55:00,
2013-08-30 02:00:00,80.9,77.0,29.94,WSW,245,0.0,0.0,88,0.00,,,0.00,Wunderground v.1.15,2013-08-30 09:00:00,
2013-08-30 02:05:00,80.8,76.6,29.95,NNW,336,0.0,1.0,87,0.00,,,0.00,Wunderground v.1.15,2013-08-30 09:05:00,
2013-08-30 02:10:00,80.2,76.3,29.94,NNW,345,0.0,0.0,88,0.00,,,0.00,Wunderground v.1.15,2013-08-30 09:10:00,
2013-08-30 02:15:00,79.9,76.4,29.94,NNW,344,0.0,0.0,89,0.00,,,0.00,Wunderground v.1.15,2013-08-30 09:15:00,
2013-08-30 02:20:00,80.4,77.2,29.94,NNE,21,0.0,1.0,90,0.00,,,0.00,Wunderground v.1.15,2013-08-30 09:20:00,
2013-08-30 02:25:00,80.9,77.4,29.94,ESE,105,0.0,1.0,89,0.00,,,0.00,Wunderground v.1.15,2013-08-30 09:25:00,
2013-08-30 02:30:00,81.2,77.3,29.94,ESE,104,0.0,0.0,88,0.00,,,0.00,Wunderground v.1.15,2013-08-30 09:30:00,
2013-08-30 02:35:00,81.2,77.0,29.94,ESE,103,0.0,0.0,87,0.00,,,0.00,Wunderground v.1.15,2013-08-30 09:35:00,
2013-08-30 02:40:00,81.0,76.8,29.94,ESE,103,0.0,0.0,87,0.00,,,0.00,Wunderground v.1.15,2013-08-30 09:40:00,
2013-08-30 02:45:00,80.2,76.7,29.94,ESE,102,0.0,1.0,89,0.00,,,0.00,Wunderground v.1.15,2013-08-30 09:45:00,
2013-08-30 02:50:00,79.9,76.4,29.94,East,101,0.0,0.0,89,0.00,,,0.00,Wunderground v.1.15,2013-08-30 09:50:00,
2013-08-30 02:55:00,79.9,76.7,29.94,ESE,102,0.0,0.0,90,0.00,,,0.00,Wunderground v.1.15,2013-08-30 09:55:00,
2013-08-30 03:00:00,79.8,76.3,29.94,East,101,0.0,0.0,89,0.00,,,0.00,Wunderground v.1.15,2013-08-30 10:00:00,
2013-08-30 03:05:00,79.9,76.4,29.94,ESE,102,0.0,0.0,89,0.00,,,0.00,Wunderground v.1.15,2013-08-30 10:05:00,
2013-08-30 03:10:00,80.0,76.5,29.94,NNW,338,1.0,1.0,89,0.00,,,0.00,Wunderground v.1.15,2013-08-30 10:10:00,
2013-08-30 03:15:00,79.4,75.9,29.94,North,351,0.0,1.0,89,0.00,,,0.00,Wunderground v.1.15,2013-08-30 10:15:00,
2013-08-30 03:20:00,79.0,75.5,29.94,North,349,0.0,0.0,89,0.00,,,0.00,Wunderground v.1.15,2013-08-30 10:20:00,
2013-08-30 03:25:00,79.0,75.5,29.95,North,349,0.0,1.0,89,0.00,,,0.00,Wunderground v.1.15,2013-08-30 10:25:00,
2013-08-30 03:30:00,78.8,75.3,29.95,North,349,0.0,0.0,89,0.00,,,0.00,Wunderground v.1.15,2013-08-30 10:30:00,
2013-08-30 03:35:00,78.9,75.4,29.94,North,349,0.0,0.0,89,0.00,,,0.00,Wunderground v.1.15,2013-08-30 10:35:00,
2013-08-30 03:40:00,79.0,75.5,29.94,North,350,0.0,0.0,89,0.00,,,0.00,Wunderground v.1.15,2013-08-30 10:40:00,
2013-08-30 03:45:00,79.2,75.7,29.94,North,350,0.0,0.0,89,0.00,,,0.00,Wunderground v.1.15,2013-08-30 10:45:00,
2013-08-30 03:50:00,79.2,75.7,29.94,North,349,0.0,0.0,89,0.00,,,0.00,Wunderground v.1.15,2013-08-30 10:50:00,
2013-08-30 03:55:00,79.1,75.2,29.94,North,349,0.0,1.0,88,0.00,,,0.00,Wunderground v.1.15,2013-08-30 10:55:00,
2013-08-30 04:00:00,79.2,75.3,29.94,North,349,0.0,0.0,88,0.00,,,0.00,Wunderground v.1.15,2013-08-30 11:00:00,
2013-08-30 04:05:00,79.1,75.2,29.94,North,350,0.0,0.0,88,0.00,,,0.00,Wunderground v.1.15,2013-08-30 11:05:00,
2013-08-30 04:10:00,79.0,75.5,29.94,North,349,0.0,0.0,89,0.00,,,0.00,Wunderground v.1.15,2013-08-30 11:10:00,
2013-08-30 04:15:00,78.8,75.3,29.94,North,349,0.0,0.0,89,0.00,,,0.00,Wunderground v.1.15,2013-08-30 11:15:00,
2013-08-30 04:20:00,78.9,75.7,29.94,North,349,0.0,0.0,90,0.00,,,0.00,Wunderground v.1.15,2013-08-30 11:20:00,
2013-08-30 04:25:00,78.9,75.4,29.94,North,349,0.0,0.0,89,0.00,,,0.00,Wunderground v.1.15,2013-08-30 11:25:00,
2013-08-30 04:30:00,78.9,75.7,29.94,North,349,0.0,0.0,90,0.00,,,0.00,Wunderground v.1.15,2013-08-30 11:30:00,
2013-08-30 04:35:00,78.9,75.7,29.94,North,350,0.0,0.0,90,0.00,,,0.00,Wunderground v.1.15,2013-08-30 11:35:00,
2013-08-30 04:40:00,78.9,75.7,29.94,North,350,0.0,0.0,90,0.00,,,0.00,Wunderground v.1.15,2013-08-30 11:40:00,
2013-08-30 04:45:00,78.8,75.6,29.94,North,349,0.0,0.0,90,0.00,,,0.00,Wunderground v.1.15,2013-08-30 11:45:00,
2013-08-30 04:50:00,78.7,75.5,29.94,North,349,0.0,0.0,90,0.00,,,0.00,Wunderground v.1.15,2013-08-30 11:50:00,
2013-08-30 04:55:00,79.2,76.0,29.94,North,356,0.0,0.0,90,0.00,,,0.00,Wunderground v.1.15,2013-08-30 11:55:00,
2013-08-30 05:00:00,79.6,76.4,29.94,North,356,0.0,0.0,90,0.00,,,0.00,Wunderground v.1.15,2013-08-30 12:00:00,
2013-08-30 05:05:00,79.7,76.5,29.94,North,356,0.0,0.0,90,0.00,,,0.00,Wunderground v.1.15,2013-08-30 12:05:00,
2013-08-30 05:10:00,79.6,76.1,29.94,North,356,0.0,0.0,89,0.00,,,0.00,Wunderground v.1.15,2013-08-30 12:10:00,
2013-08-30 05:15:00,79.4,76.2,29.94,North,357,0.0,0.0,90,0.00,,,0.00,Wunderground v.1.15,2013-08-30 12:15:00,
2013-08-30 05:20:00,79.2,76.0,29.95,North,355,0.0,0.0,90,0.00,,,0.00,Wunderground v.1.15,2013-08-30 12:20:00,
2013-08-30 05:25:00,79.3,76.4,29.95,North,355,0.0,0.0,91,0.00,,,0.00,Wunderground v.1.15,2013-08-30 12:25:00,
2013-08-30 05:30:00,79.2,76.3,29.95,North,356,0.0,0.0,91,0.00,,,0.00,Wunderground v.1.15,2013-08-30 12:30:00,
2013-08-30 05:35:00,78.9,75.7,29.95,North,355,0.0,0.0,90,0.00,,,0.00,Wunderground v.1.15,2013-08-30 12:35:00,
2013-08-30 05:40:00,78.8,75.6,29.95,North,352,0.0,0.0,90,0.00,,,0.00,Wunderground v.1.15,2013-08-30 12:40:00,
2013-08-30 05:45:00,78.4,75.2,29.95,North,350,0.0,1.0,90,0.00,,,0.00,Wunderground v.1.15,2013-08-30 12:45:00,
2013-08-30 05:50:00,78.4,75.2,29.95,North,349,0.0,1.0,90,0.00,,,0.00,Wunderground v.1.15,2013-08-30 12:50:00,
2013-08-30 05:55:00,78.3,75.1,29.95,North,349,0.0,1.0,90,0.00,,,0.00,Wunderground v.1.15,2013-08-30 12:55:00,
2013-08-30 06:00:00,78.1,74.9,29.95,North,349,0.0,0.0,90,0.00,,,0.00,Wunderground v.1.15,2013-08-30 13:00:00,
2013-08-30 06:05:00,77.9,74.7,29.95,North,349,0.0,1.0,90,0.00,,,0.00,Wunderground v.1.15,2013-08-30 13:05:00,
2013-08-30 06:10:00,77.9,75.1,29.95,North,350,0.0,0.0,91,0.00,,,0.00,Wunderground v.1.15,2013-08-30 13:10:00,
2013-08-30 06:15:00,77.8,75.0,29.96,NNW,344,0.0,1.0,91,0.00,,,0.00,Wunderground v.1.15,2013-08-30 13:15:00,
2013-08-30 06:20:00,77.8,75.0,29.95,NE,54,1.0,1.0,91,0.00,,,0.00,Wunderground v.1.15,2013-08-30 13:20:00,
2013-08-30 06:25:00,78.1,75.3,29.96,NE,56,0.0,1.0,91,0.00,,,0.00,Wunderground v.1.15,2013-08-30 13:25:00,
2013-08-30 06:30:00,78.4,75.6,29.96,NE,56,0.0,1.0,91,0.00,,,0.00,Wunderground v.1.15,2013-08-30 13:30:00,
2013-08-30 06:34:00,78.6,75.4,29.96,NE,56,0.0,0.0,90,0.00,,,0.00,Wunderground v.1.15,2013-08-30 13:34:00,
2013-08-30 06:39:00,79.0,75.8,29.96,ENE,57,0.0,0.0,90,0.00,,,0.00,Wunderground v.1.15,2013-08-30 13:39:00,
2013-08-30 06:44:00,79.6,76.4,29.96,WSW,242,0.0,0.0,90,0.00,,,0.00,Wunderground v.1.15,2013-08-30 13:44:00,
2013-08-30 06:49:00,80.1,76.6,29.96,WSW,242,0.0,0.0,89,0.00,,,0.00,Wunderground v.1.15,2013-08-30 13:49:00,
2013-08-30 06:54:00,80.9,77.0,29.97,WSW,242,0.0,0.0,88,0.00,,,0.00,Wunderground v.1.15,2013-08-30 13:54:00,
2013-08-30 06:59:00,80.9,76.7,29.97,West,274,0.0,1.0,87,0.00,,,0.00,Wunderground v.1.15,2013-08-30 13:59:00,
2013-08-30 07:04:00,80.6,76.7,29.97,WNW,293,0.0,1.0,88,0.00,,,0.00,Wunderground v.1.15,2013-08-30 14:04:00,
2013-08-30 07:09:00,80.4,76.9,29.96,WNW,294,0.0,1.0,89,0.00,,,0.00,Wunderground v.1.15,2013-08-30 14:09:00,
2013-08-30 07:14:00,80.2,76.7,29.97,WNW,301,0.0,1.0,89,0.00,,,0.00,Wunderground v.1.15,2013-08-30 14:14:00,
2013-08-30 07:19:00,80.2,77.0,29.96,WNW,302,0.0,1.0,90,0.00,,,0.00,Wunderground v.1.15,2013-08-30 14:19:00,
2013-08-30 07:24:00,80.2,77.0,29.96,WNW,301,0.0,0.0,90,0.00,,,0.00,Wunderground v.1.15,2013-08-30 14:24:00,
2013-08-30 07:29:00,80.3,77.1,29.97,WNW,300,0.0,0.0,90,0.00,,,0.00,Wunderground v.1.15,2013-08-30 14:29:00,
2013-08-30 07:34:00,80.5,77.3,29.97,WNW,300,0.0,0.0,90,0.00,,,0.00,Wunderground v.1.15,2013-08-30 14:34:00,
2013-08-30 07:39:00,80.6,77.7,29.97,NW,314,0.0,0.0,91,0.00,,,0.00,Wunderground v.1.15,2013-08-30 14:39:00,
2013-08-30 07:44:00,80.8,77.9,29.97,NW,316,0.0,0.0,91,0.00,,,0.00,Wunderground v.1.15,2013-08-30 14:44:00,
2013-08-30 07:49:00,81.1,78.2,29.97,NW,315,0.0,0.0,91,0.00,,,0.00,Wunderground v.1.15,2013-08-30 14:49:00,
2013-08-30 07:54:00,81.4,78.5,29.97,NW,315,0.0,0.0,91,0.00,,,0.00,Wunderground v.1.15,2013-08-30 14:54:00,
2013-08-30 07:59:00,81.8,78.6,29.97,NW,314,0.0,0.0,90,0.00,,,0.00,Wunderground v.1.15,2013-08-30 14:59:00,
2013-08-30 08:04:00,82.2,78.6,29.97,NW,314,0.0,1.0,89,0.00,,,0.00,Wunderground v.1.15,2013-08-30 15:04:00,
2013-08-30 08:09:00,82.7,79.1,29.97,NW,314,0.0,1.0,89,0.00,,,0.00,Wunderground v.1.15,2013-08-30 15:09:00,
2013-08-30 08:14:00,83.4,79.1,29.97,NW,312,0.0,0.0,87,0.00,,,0.00,Wunderground v.1.15,2013-08-30 15:14:00,
2013-08-30 08:19:00,83.8,78.1,29.97,West,273,0.0,1.0,83,0.00,,,0.00,Wunderground v.1.15,2013-08-30 15:19:00,
2013-08-30 08:24:00,84.3,77.8,29.97,West,273,0.0,0.0,81,0.00,,,0.00,Wunderground v.1.15,2013-08-30 15:24:00,
2013-08-30 08:29:00,85.1,77.1,29.97,West,273,0.0,1.0,77,0.00,,,0.00,Wunderground v.1.15,2013-08-30 15:29:00,
2013-08-30 08:34:00,85.6,76.4,29.97,NW,305,0.0,1.0,74,0.00,,,0.00,Wunderground v.1.15,2013-08-30 15:34:00,
2013-08-30 08:39:00,85.8,76.1,29.98,NW,314,0.0,1.0,73,0.00,,,0.00,Wunderground v.1.15,2013-08-30 15:39:00,
2013-08-30 08:44:00,86.1,77.2,29.98,NW,311,0.0,0.0,75,0.00,,,0.00,Wunderground v.1.15,2013-08-30 15:44:00,
2013-08-30 08:49:00,86.1,76.8,29.98,WSW,243,0.0,0.0,74,0.00,,,0.00,Wunderground v.1.15,2013-08-30 15:49:00,
2013-08-30 08:54:00,86.0,77.1,29.98,West,267,0.0,1.0,75,0.00,,,0.00,Wunderground v.1.15,2013-08-30 15:54:00,
2013-08-30 08:59:00,86.1,76.8,29.98,WNW,296,0.0,1.0,74,0.00,,,0.00,Wunderground v.1.15,2013-08-30 15:59:00,
2013-08-30 09:04:00,86.1,76.4,29.98,WNW,297,0.0,0.0,73,0.00,,,0.00,Wunderground v.1.15,2013-08-30 16:04:00,
2013-08-30 09:09:00,86.5,76.8,29.98,WNW,294,0.0,0.0,73,0.00,,,0.00,Wunderground v.1.15,2013-08-30 16:09:00,
2013-08-30 09:14:00,86.7,77.0,29.98,WNW,295,1.0,1.0,73,0.00,,,0.00,Wunderground v.1.15,2013-08-30 16:14:00,
2013-08-30 09:19:00,86.6,76.5,29.98,West,264,0.0,2.0,72,0.00,,,0.00,Wunderground v.1.15,2013-08-30 16:19:00,
2013-08-30 09:24:00,87.0,76.5,29.98,WNW,295,1.0,2.0,71,0.00,,,0.00,Wunderground v.1.15,2013-08-30 16:24:00,
2013-08-30 09:29:00,87.2,75.8,29.99,WNW,294,1.0,2.0,69,0.00,,,0.00,Wunderground v.1.15,2013-08-30 16:29:00,
2013-08-30 09:34:00,87.2,76.6,29.98,West,268,1.0,3.0,71,0.00,,,0.00,Wunderground v.1.15,2013-08-30 16:34:00,
2013-08-30 09:39:00,87.2,76.6,29.99,WNW,295,2.0,3.0,71,0.00,,,0.00,Wunderground v.1.15,2013-08-30 16:39:00,
2013-08-30 09:44:00,87.2,76.6,29.99,WNW,290,2.0,3.0,71,0.00,,,0.00,Wunderground v.1.15,2013-08-30 16:44:00,
2013-08-30 09:49:00,87.0,75.6,29.99,WSW,257,3.0,3.0,69,0.00,,,0.00,Wunderground v.1.15,2013-08-30 16:49:00,
2013-08-30 09:54:00,86.9,74.6,29.99,West,271,2.0,4.0,67,0.00,,,0.00,Wunderground v.1.15,2013-08-30 16:54:00,
2013-08-30 09:59:00,87.1,76.1,29.99,WNW,303,2.0,4.0,70,0.00,,,0.00,Wunderground v.1.15,2013-08-30 16:59:00,
2013-08-30 10:04:00,87.2,76.2,29.99,West,266,1.0,3.0,70,0.00,,,0.00,Wunderground v.1.15,2013-08-30 17:04:00,
2013-08-30 10:09:00,87.5,75.2,29.99,NW,305,2.0,3.0,67,0.00,,,0.00,Wunderground v.1.15,2013-08-30 17:09:00,
2013-08-30 10:14:00,87.6,75.3,29.98,WSW,252,1.0,3.0,67,0.00,,,0.00,Wunderground v.1.15,2013-08-30 17:14:00,
2013-08-30 10:19:00,87.8,75.0,29.98,West,276,3.0,3.0,66,0.00,,,0.00,Wunderground v.1.15,2013-08-30 17:19:00,
2013-08-30 10:24:00,88.2,75.9,29.98,West,281,0.0,3.0,67,0.00,,,0.00,Wunderground v.1.15,2013-08-30 17:24:00,
2013-08-30 10:29:00,88.4,76.5,29.98,NW,316,2.0,3.0,68,0.00,,,0.00,Wunderground v.1.15,2013-08-30 17:29:00,
2013-08-30 10:34:00,88.4,76.0,29.98,West,281,2.0,3.0,67,0.00,,,0.00,Wunderground v.1.15,2013-08-30 17:34:00,
2013-08-30 10:39:00,88.5,75.7,29.98,West,277,2.0,3.0,66,0.00,,,0.00,Wunderground v.1.15,2013-08-30 17:39:00,
2013-08-30 10:44:00,88.5,75.2,29.98,West,276,2.0,3.0,65,0.00,,,0.00,Wunderground v.1.15,2013-08-30 17:44:00,
2013-08-30 10:49:00,88.4,75.1,29.98,West,260,3.0,4.0,65,0.00,,,0.00,Wunderground v.1.15,2013-08-30 17:49:00,
2013-08-30 10:54:00,88.4,74.7,29.98,WSW,250,2.0,3.0,64,0.00,,,0.00,Wunderground v.1.15,2013-08-30 17:54:00,
2013-08-30 10:59:00,88.4,75.1,29.98,WSW,246,4.0,5.0,65,0.00,,,0.00,Wunderground v.1.15,2013-08-30 17:59:00,
2013-08-30 11:04:00,88.5,74.8,29.98,West,277,1.0,3.0,64,0.00,,,0.00,Wunderground v.1.15,2013-08-30 18:04:00,
2013-08-30 11:09:00,88.7,75.9,29.98,West,269,3.0,3.0,66,0.00,,,0.00,Wunderground v.1.15,2013-08-30 18:09:00,
2013-08-30 11:14:00,88.9,75.1,29.98,West,261,0.0,3.0,64,0.00,,,0.00,Wunderground v.1.15,2013-08-30 18:14:00,
2013-08-30 11:19:00,89.0,76.2,29.98,West,269,1.0,4.0,66,0.00,,,0.00,Wunderground v.1.15,2013-08-30 18:19:00,
2013-08-30 11:24:00,89.2,75.4,29.97,West,262,3.0,4.0,64,0.00,,,0.00,Wunderground v.1.15,2013-08-30 18:24:00,
2013-08-30 11:29:00,89.3,75.0,29.97,WSW,240,4.0,4.0,63,0.00,,,0.00,Wunderground v.1.15,2013-08-30 18:29:00,
2013-08-30 11:34:00,89.9,75.6,29.97,West,271,2.0,3.0,63,0.00,,,0.00,Wunderground v.1.15,2013-08-30 18:34:00,
2013-08-30 11:39:00,89.9,74.2,29.97,WSW,248,2.0,5.0,60,0.00,,,0.00,Wunderground v.1.15,2013-08-30 18:39:00,
2013-08-30 11:44:00,90.1,74.3,29.97,WSW,248,0.0,3.0,60,0.00,,,0.00,Wunderground v.1.15,2013-08-30 18:44:00,
2013-08-30 11:49:00,90.9,74.1,29.97,West,262,1.0,3.0,58,0.00,,,0.00,Wunderground v.1.15,2013-08-30 18:49:00,
2013-08-30 11:54:00,91.0,72.6,29.97,West,269,2.0,5.0,55,0.00,,,0.00,Wunderground v.1.15,2013-08-30 18:54:00,
2013-08-30 11:59:00,91.3,72.9,29.96,West,269,4.0,5.0,55,0.00,,,0.00,Wunderground v.1.15,2013-08-30 18:59:00,
2013-08-30 12:04:00,91.8,74.4,29.96,West,276,4.0,4.0,57,0.00,,,0.00,Wunderground v.1.15,2013-08-30 19:04:00,
2013-08-30 12:09:00,91.6,72.6,29.96,West,272,1.0,5.0,54,0.00,,,0.00,Wunderground v.1.15,2013-08-30 19:09:00,
2013-08-30 12:14:00,91.7,72.1,29.96,West,262,1.0,2.0,53,0.00,,,0.00,Wunderground v.1.15,2013-08-30 19:14:00,
2013-08-30 12:19:00,92.2,73.2,29.95,NW,309,1.0,3.0,54,0.00,,,0.00,Wunderground v.1.15,2013-08-30 19:19:00,
2013-08-30 12:24:00,92.8,72.0,29.95,NW,317,1.0,2.0,51,0.00,,,0.00,Wunderground v.1.15,2013-08-30 19:24:00,
2013-08-30 12:29:00,92.7,73.1,29.95,West,276,1.0,3.0,53,0.00,,,0.00,Wunderground v.1.15,2013-08-30 19:29:00,
2013-08-30 12:34:00,92.3,73.2,29.95,WNW,301,1.0,4.0,54,0.00,,,0.00,Wunderground v.1.15,2013-08-30 19:34:00,
2013-08-30 12:39:00,92.2,72.0,29.94,West,269,1.0,4.0,52,0.00,,,0.00,Wunderground v.1.15,2013-08-30 19:39:00,
2013-08-30 12:44:00,92.3,72.1,29.94,NW,308,0.0,2.0,52,0.00,,,0.00,Wunderground v.1.15,2013-08-30 19:44:00,
2013-08-30 12:49:00,92.4,73.9,29.94,WNW,294,2.0,3.0,55,0.00,,,0.00,Wunderground v.1.15,2013-08-30 19:49:00,
2013-08-30 12:54:00,92.8,73.7,29.93,WNW,294,2.0,3.0,54,0.00,,,0.00,Wunderground v.1.15,2013-08-30 19:54:00,
2013-08-30 12:59:00,92.5,72.9,29.93,West,264,3.0,5.0,53,0.00,,,0.00,Wunderground v.1.15,2013-08-30 19:59:00,
2013-08-30 13:04:00,92.1,72.5,29.93,West,272,4.0,5.0,53,0.00,,,0.00,Wunderground v.1.15,2013-08-30 20:04:00,
2013-08-30 13:09:00,92.3,73.8,29.93,WSW,248,0.0,5.0,55,0.00,,,0.00,Wunderground v.1.15,2013-08-30 20:09:00,
2013-08-30 13:14:00,93.2,72.4,29.93,SW,229,0.0,5.0,51,0.00,,,0.00,Wunderground v.1.15,2013-08-30 20:14:00,
2013-08-30 13:19:00,93.9,73.0,29.93,WSW,253,2.0,5.0,51,0.00,,,0.00,Wunderground v.1.15,2013-08-30 20:19:00,
2013-08-30 13:24:00,93.9,71.8,29.92,West,281,2.0,6.0,49,0.00,,,0.00,Wunderground v.1.15,2013-08-30 20:24:00,
2013-08-30 13:29:00,94.1,73.2,29.92,WSW,239,2.0,6.0,51,0.00,,,0.00,Wunderground v.1.15,2013-08-30 20:29:00,
2013-08-30 13:34:00,94.2,73.3,29.92,SSW,195,0.0,4.0,51,0.00,,,0.00,Wunderground v.1.15,2013-08-30 20:34:00,
2013-08-30 13:39:00,94.5,73.0,29.92,SW,214,6.0,9.0,50,0.00,,,0.00,Wunderground v.1.15,2013-08-30 20:39:00,
2013-08-30 13:44:00,93.5,73.2,29.92,SW,235,6.0,8.0,52,0.00,,,0.00,Wunderground v.1.15,2013-08-30 20:44:00,
2013-08-30 13:49:00,93.5,70.9,29.92,SE,146,1.0,8.0,48,0.00,,,0.00,Wunderground v.1.15,2013-08-30 20:49:00,
2013-08-30 13:53:00,94.0,72.5,29.92,West,271,3.0,7.0,50,0.00,,,0.00,Wunderground v.1.15,2013-08-30 20:53:00,
2013-08-30 13:58:00,93.6,70.3,29.91,West,259,3.0,9.0,47,0.00,,,0.00,Wunderground v.1.15,2013-08-30 20:58:00,
2013-08-30 14:03:00,93.4,70.8,29.91,WSW,250,5.0,9.0,48,0.00,,,0.00,Wunderground v.1.15,2013-08-30 21:03:00,
2013-08-30 14:08:00,93.8,71.7,29.91,SW,232,3.0,9.0,49,0.00,,,0.00,Wunderground v.1.15,2013-08-30 21:08:00,
2013-08-30 14:13:00,93.6,70.3,29.91,WSW,252,4.0,9.0,47,0.00,,,0.00,Wunderground v.1.15,2013-08-30 21:13:00,
2013-08-30 14:18:00,93.3,71.9,29.91,West,263,0.0,9.0,50,0.00,,,0.00,Wunderground v.1.15,2013-08-30 21:18:00,
2013-08-30 14:23:00,94.1,72.0,29.90,West,280,2.0,7.0,49,0.00,,,0.00,Wunderground v.1.15,2013-08-30 21:23:00,
2013-08-30 14:28:00,94.3,72.8,29.90,WSW,257,4.0,7.0,50,0.00,,,0.00,Wunderground v.1.15,2013-08-30 21:28:00,
2013-08-30 14:33:00,94.2,71.5,29.90,SW,226,2.0,9.0,48,0.00,,,0.00,Wunderground v.1.15,2013-08-30 21:33:00,
2013-08-30 14:38:00,94.3,72.2,29.89,West,259,4.0,9.0,49,0.00,,,0.00,Wunderground v.1.15,2013-08-30 21:38:00,
2013-08-30 14:43:00,94.2,71.5,29.89,WSW,253,3.0,8.0,48,0.00,,,0.00,Wunderground v.1.15,2013-08-30 21:43:00,
2013-08-30 14:48:00,93.6,72.7,29.88,West,259,6.0,8.0,51,0.00,,,0.00,Wunderground v.1.15,2013-08-30 21:48:00,
2013-08-30 14:53:00,93.7,73.4,29.88,West,266,8.0,8.0,52,0.00,,,0.00,Wunderground v.1.15,2013-08-30 21:53:00,
2013-08-30 14:58:00,93.8,72.9,29.88,West,263,8.0,8.0,51,0.00,,,0.00,Wunderground v.1.15,2013-08-30 21:58:00,
2013-08-30 15:03:00,93.1,74.0,29.88,West,269,6.0,7.0,54,0.00,,,0.00,Wunderground v.1.15,2013-08-30 22:03:00,
2013-08-30 15:08:00,93.2,73.5,29.88,SW,215,3.0,7.0,53,0.00,,,0.00,Wunderground v.1.15,2013-08-30 22:08:00,
2013-08-30 15:13:00,93.4,72.6,29.88,West,277,3.0,9.0,51,0.00,,,0.00,Wunderground v.1.15,2013-08-30 22:13:00,
2013-08-30 15:18:00,93.6,73.9,29.87,WSW,255,0.0,9.0,53,0.00,,,0.00,Wunderground v.1.15,2013-08-30 22:18:00,
2013-08-30 15:23:00,94.4,72.9,29.87,West,274,4.0,5.0,50,0.00,,,0.00,Wunderground v.1.15,2013-08-30 22:23:00,
2013-08-30 15:28:00,94.5,70.5,29.87,SW,226,6.0,9.0,46,0.00,,,0.00,Wunderground v.1.15,2013-08-30 22:28:00,
2013-08-30 15:33:00,95.1,72.3,29.87,West,270,6.0,7.0,48,0.00,,,0.00,Wunderground v.1.15,2013-08-30 22:33:00,
2013-08-30 15:38:00,94.5,72.4,29.87,West,260,6.0,11.0,49,0.00,,,0.00,Wunderground v.1.15,2013-08-30 22:38:00,
2013-08-30 15:43:00,94.4,73.5,29.87,SW,226,1.0,7.0,51,0.00,,,0.00,Wunderground v.1.15,2013-08-30 22:43:00,
2013-08-30 15:48:00,94.8,70.8,29.87,WSW,249,0.0,8.0,46,0.00,,,0.00,Wunderground v.1.15,2013-08-30 22:48:00,
2013-08-30 15:53:00,94.9,70.2,29.87,West,269,2.0,8.0,45,0.00,,,0.00,Wunderground v.1.15,2013-08-30 22:53:00,
2013-08-30 15:58:00,94.7,71.3,29.87,WSW,248,1.0,9.0,47,0.00,,,0.00,Wunderground v.1.15,2013-08-30 22:58:00,
2013-08-30 16:03:00,94.8,72.0,29.87,East,98,2.0,8.0,48,0.00,,,0.00,Wunderground v.1.15,2013-08-30 23:03:00,
2013-08-30 16:08:00,94.9,72.1,29.87,West,259,4.0,8.0,48,0.00,,,0.00,Wunderground v.1.15,2013-08-30 23:08:00,
2013-08-30 16:13:00,95.0,71.0,29.86,SSE,153,0.0,6.0,46,0.00,,,0.00,Wunderground v.1.15,2013-08-30 23:13:00,
2013-08-30 16:18:00,95.4,71.3,29.86,WSW,252,1.0,6.0,46,0.00,,,0.00,Wunderground v.1.15,2013-08-30 23:18:00,
2013-08-30 16:23:00,95.8,72.3,29.87,WSW,257,0.0,2.0,47,0.00,,,0.00,Wunderground v.1.15,2013-08-30 23:23:00,
2013-08-30 16:28:00,95.6,71.5,29.86,West,269,3.0,4.0,46,0.00,,,0.00,Wunderground v.1.15,2013-08-30 23:28:00,
2013-08-30 16:33:00,95.0,71.0,29.86,WSW,258,4.0,5.0,46,0.00,,,0.00,Wunderground v.1.15,2013-08-30 23:33:00,
2013-08-30 16:38:00,94.4,70.4,29.86,SW,225,3.0,5.0,46,0.00,,,0.00,Wunderground v.1.15,2013-08-30 23:38:00,
2013-08-30 16:43:00,94.1,71.4,29.86,West,274,3.0,4.0,48,0.00,,,0.00,Wunderground v.1.15,2013-08-30 23:43:00,
2013-08-30 16:48:00,94.2,70.2,29.86,WSW,255,2.0,4.0,46,0.00,,,0.00,Wunderground v.1.15,2013-08-30 23:48:00,
2013-08-30 16:53:00,94.1,71.4,29.86,West,269,2.0,3.0,48,0.00,,,0.00,Wunderground v.1.15,2013-08-30 23:53:00,
2013-08-30 16:58:00,94.0,70.7,29.86,WSW,237,0.0,3.0,47,0.00,,,0.00,Wunderground v.1.15,2013-08-30 23:58:00,
2013-08-30 17:03:00,94.3,71.6,29.86,WSW,243,0.0,2.0,48,0.00,,,0.00,Wunderground v.1.15,2013-08-31 00:03:00,
2013-08-30 17:08:00,94.5,71.2,29.85,WSW,240,0.0,2.0,47,0.00,,,0.00,Wunderground v.1.15,2013-08-31 00:08:00,
2013-08-30 17:13:00,94.5,70.5,29.85,WSW,239,0.0,2.0,46,0.00,,,0.00,Wunderground v.1.15,2013-08-31 00:13:00,
2013-08-30 17:18:00,94.7,70.7,29.85,SW,235,0.0,2.0,46,0.00,,,0.00,Wunderground v.1.15,2013-08-31 00:18:00,
2013-08-30 17:23:00,94.8,71.4,29.85,ESE,121,0.0,4.0,47,0.00,,,0.00,Wunderground v.1.15,2013-08-31 00:23:00,
2013-08-30 17:28:00,94.9,70.9,29.85,SE,131,0.0,4.0,46,0.00,,,0.00,Wunderground v.1.15,2013-08-31 00:28:00,
2013-08-30 17:33:00,95.2,71.2,29.85,SW,219,0.0,1.0,46,0.00,,,0.00,Wunderground v.1.15,2013-08-31 00:33:00,
2013-08-30 17:38:00,95.4,72.0,29.85,WSW,252,0.0,2.0,47,0.00,,,0.00,Wunderground v.1.15,2013-08-31 00:38:00,
2013-08-30 17:43:00,95.0,71.0,29.85,SW,225,7.0,7.0,46,0.00,,,0.00,Wunderground v.1.15,2013-08-31 00:43:00,
2013-08-30 17:48:00,94.7,71.3,29.85,WSW,253,1.0,7.0,47,0.00,,,0.00,Wunderground v.1.15,2013-08-31 00:48:00,
2013-08-30 17:53:00,94.5,71.2,29.85,SW,229,2.0,4.0,47,0.00,,,0.00,Wunderground v.1.15,2013-08-31 00:53:00,
2013-08-30 17:58:00,94.5,71.8,29.85,West,262,0.0,4.0,48,0.00,,,0.00,Wunderground v.1.15,2013-08-31 00:58:00,
2013-08-30 18:03:00,94.5,72.4,29.85,SSW,208,0.0,1.0,49,0.00,,,0.00,Wunderground v.1.15,2013-08-31 01:03:00,
2013-08-30 18:08:00,94.5,72.4,29.85,SSW,200,0.0,3.0,49,0.00,,,0.00,Wunderground v.1.15,2013-08-31 01:08:00,
2013-08-30 18:13:00,94.4,72.3,29.85,West,267,0.0,1.0,49,0.00,,,0.00,Wunderground v.1.15,2013-08-31 01:13:00,
2013-08-30 18:18:00,94.1,72.0,29.85,SW,229,3.0,4.0,49,0.00,,,0.00,Wunderground v.1.15,2013-08-31 01:18:00,
2013-08-30 18:23:00,93.9,72.4,29.85,SW,231,2.0,5.0,50,0.00,,,0.00,Wunderground v.1.15,2013-08-31 01:23:00,
2013-08-30 18:28:00,93.8,71.7,29.85,SW,234,2.0,5.0,49,0.00,,,0.00,Wunderground v.1.15,2013-08-31 01:28:00,
2013-08-30 18:33:00,93.7,71.7,29.85,SSW,204,0.0,3.0,49,0.00,,,0.00,Wunderground v.1.15,2013-08-31 01:33:00,
2013-08-30 18:38:00,93.7,72.3,29.85,SW,232,3.0,5.0,50,0.00,,,0.00,Wunderground v.1.15,2013-08-31 01:38:00,
2013-08-30 18:43:00,93.4,72.6,29.85,SW,218,3.0,5.0,51,0.00,,,0.00,Wunderground v.1.15,2013-08-31 01:43:00,
2013-08-30 18:48:00,93.1,72.9,29.85,SSE,159,0.0,5.0,52,0.00,,,0.00,Wunderground v.1.15,2013-08-31 01:48:00,
2013-08-30 18:53:00,92.9,72.7,29.85,SW,214,0.0,2.0,52,0.00,,,0.00,Wunderground v.1.15,2013-08-31 01:53:00,
2013-08-30 18:58:00,92.6,73.0,29.85,WSW,239,3.0,5.0,53,0.00,,,0.00,Wunderground v.1.15,2013-08-31 01:58:00,
2013-08-30 19:03:00,92.2,73.7,29.85,SW,231,3.0,5.0,55,0.00,,,0.00,Wunderground v.1.15,2013-08-31 02:03:00,
2013-08-30 19:08:00,91.8,73.3,29.85,WSW,242,0.0,5.0,55,0.00,,,0.00,Wunderground v.1.15,2013-08-31 02:08:00,
2013-08-30 19:13:00,91.5,73.1,29.85,WSW,240,2.0,3.0,55,0.00,,,0.00,Wunderground v.1.15,2013-08-31 02:13:00,
2013-08-30 19:18:00,91.3,72.9,29.85,SW,229,0.0,3.0,55,0.00,,,0.00,Wunderground v.1.15,2013-08-31 02:18:00,
2013-08-30 19:23:00,91.0,72.6,29.85,WSW,242,0.0,1.0,55,0.00,,,0.00,Wunderground v.1.15,2013-08-31 02:23:00,
2013-08-30 19:28:00,90.9,72.5,29.86,WSW,240,0.0,1.0,55,0.00,,,0.00,Wunderground v.1.15,2013-08-31 02:28:00,
2013-08-30 19:33:00,90.7,71.8,29.86,WSW,240,0.0,0.0,54,0.00,,,0.00,Wunderground v.1.15,2013-08-31 02:33:00,
2013-08-30 19:38:00,90.6,71.7,29.85,WSW,253,0.0,1.0,54,0.00,,,0.00,Wunderground v.1.15,2013-08-31 02:38:00,
2013-08-30 19:43:00,90.6,71.1,29.86,WSW,253,0.0,0.0,53,0.00,,,0.00,Wunderground v.1.15,2013-08-31 02:43:00,
2013-08-30 19:48:00,90.5,71.0,29.86,WSW,253,0.0,0.0,53,0.00,,,0.00,Wunderground v.1.15,2013-08-31 02:48:00,
2013-08-30 19:53:00,90.4,70.9,29.86,WSW,253,0.0,0.0,53,0.00,,,0.00,Wunderground v.1.15,2013-08-31 02:53:00,
2013-08-30 19:58:00,90.3,71.4,29.86,WSW,253,0.0,0.0,54,0.00,,,0.00,Wunderground v.1.15,2013-08-31 02:58:00,
2013-08-30 20:03:00,90.2,71.3,29.86,WSW,253,0.0,0.0,54,0.00,,,0.00,Wunderground v.1.15,2013-08-31 03:03:00,
2013-08-30 20:08:00,90.0,71.1,29.86,WSW,253,0.0,0.0,54,0.00,,,0.00,Wunderground v.1.15,2013-08-31 03:08:00,
2013-08-30 20:13:00,89.9,71.0,29.86,WSW,253,0.0,0.0,54,0.00,,,0.00,Wunderground v.1.15,2013-08-31 03:13:00,
2013-08-30 20:18:00,89.8,70.9,29.86,WSW,253,0.0,0.0,54,0.00,,,0.00,Wunderground v.1.15,2013-08-31 03:18:00,
2013-08-30 20:23:00,89.8,70.9,29.86,WSW,253,0.0,0.0,54,0.00,,,0.00,Wunderground v.1.15,2013-08-31 03:23:00,
2013-08-30 20:28:00,89.7,70.8,29.86,WSW,253,0.0,0.0,54,0.00,,,0.00,Wunderground v.1.15,2013-08-31 03:28:00,
2013-08-30 20:33:00,89.7,70.8,29.86,WSW,255,0.0,0.0,54,0.00,,,0.00,Wunderground v.1.15,2013-08-31 03:33:00,
2013-08-30 20:38:00,89.7,70.8,29.87,WSW,255,0.0,0.0,54,0.00,,,0.00,Wunderground v.1.15,2013-08-31 03:38:00,
2013-08-30 20:43:00,89.6,71.3,29.87,WSW,255,0.0,0.0,55,0.00,,,0.00,Wunderground v.1.15,2013-08-31 03:43:00,
2013-08-30 20:48:00,89.5,71.2,29.87,WSW,255,0.0,0.0,55,0.00,,,0.00,Wunderground v.1.15,2013-08-31 03:48:00,
2013-08-30 20:53:00,89.5,71.2,29.87,WSW,255,0.0,0.0,55,0.00,,,0.00,Wunderground v.1.15,2013-08-31 03:53:00,
2013-08-30 20:58:00,89.5,71.7,29.87,WSW,255,0.0,1.0,56,0.00,,,0.00,Wunderground v.1.15,2013-08-31 03:58:00,
2013-08-30 21:01:00,89.4,71.6,29.87,WSW,255,0.0,0.0,56,0.00,,,0.00,Wunderground v.1.15,2013-08-31 04:01:00,
2013-08-30 21:06:00,89.5,71.2,29.87,WSW,248,0.0,0.0,55,0.00,,,0.00,Wunderground v.1.15,2013-08-31 04:06:00,
2013-08-30 21:11:00,89.4,71.6,29.87,WSW,249,0.0,0.0,56,0.00,,,0.00,Wunderground v.1.15,2013-08-31 04:11:00,
2013-08-30 21:16:00,89.2,72.0,29.88,WSW,249,0.0,0.0,57,0.00,,,0.00,Wunderground v.1.15,2013-08-31 04:16:00,
2013-08-30 21:21:00,89.1,71.9,29.87,WSW,248,0.0,0.0,57,0.00,,,0.00,Wunderground v.1.15,2013-08-31 04:21:00,
2013-08-30 21:26:00,88.8,73.1,29.88,WSW,242,1.0,2.0,60,0.00,,,0.00,Wunderground v.1.15,2013-08-31 04:26:00,
2013-08-30 21:31:00,88.7,73.0,29.88,SW,225,3.0,3.0,60,0.00,,,0.00,Wunderground v.1.15,2013-08-31 04:31:00,
2013-08-30 21:36:00,88.6,72.9,29.88,WSW,242,0.0,3.0,60,0.00,,,0.00,Wunderground v.1.15,2013-08-31 04:36:00,
2013-08-30 21:41:00,88.5,72.8,29.88,SW,236,3.0,3.0,60,0.00,,,0.00,Wunderground v.1.15,2013-08-31 04:41:00,
2013-08-30 21:46:00,88.4,72.2,29.88,SSW,204,0.0,4.0,59,0.00,,,0.00,Wunderground v.1.15,2013-08-31 04:46:00,
2013-08-30 21:51:00,88.4,72.2,29.87,SW,229,0.0,1.0,59,0.00,,,0.00,Wunderground v.1.15,2013-08-31 04:51:00,
2013-08-30 21:56:00,88.4,71.7,29.87,SW,229,0.0,1.0,58,0.00,,,0.00,Wunderground v.1.15,2013-08-31 04:56:00,
2013-08-30 22:01:00,88.4,71.7,29.87,SW,229,0.0,0.0,58,0.00,,,0.00,Wunderground v.1.15,2013-08-31 05:01:00,
2013-08-30 22:06:00,88.5,71.3,29.87,SW,221,0.0,1.0,57,0.00,,,0.00,Wunderground v.1.15,2013-08-31 05:06:00,
2013-08-30 22:11:00,88.6,71.9,29.87,SW,222,0.0,0.0,58,0.00,,,0.00,Wunderground v.1.15,2013-08-31 05:11:00,
2013-08-30 22:16:00,88.6,71.9,29.87,SW,222,0.0,0.0,58,0.00,,,0.00,Wunderground v.1.15,2013-08-31 05:16:00,
2013-08-30 22:21:00,88.2,72.6,29.88,SW,231,1.0,2.0,60,0.00,,,0.00,Wunderground v.1.15,2013-08-31 05:21:00,
2013-08-30 22:26:00,88.0,72.4,29.88,SW,226,0.0,2.0,60,0.00,,,0.00,Wunderground v.1.15,2013-08-31 05:26:00,
2013-08-30 22:31:00,88.0,72.4,29.88,SW,226,0.0,0.0,60,0.00,,,0.00,Wunderground v.1.15,2013-08-31 05:31:00,
2013-08-30 22:36:00,88.2,71.6,29.88,WSW,238,2.0,3.0,58,0.00,,,0.00,Wunderground v.1.15,2013-08-31 05:36:00,
2013-08-30 22:41:00,88.2,72.1,29.88,SSW,207,0.0,1.0,59,0.00,,,0.00,Wunderground v.1.15,2013-08-31 05:41:00,
2013-08-30 22:46:00,88.3,71.6,29.88,SW,233,0.0,3.0,58,0.00,,,0.00,Wunderground v.1.15,2013-08-31 05:46:00,
2013-08-30 22:51:00,88.4,71.7,29.87,SW,225,0.0,2.0,58,0.00,,,0.00,Wunderground v.1.15,2013-08-31 05:51:00,
2013-08-30 22:56:00,88.3,72.2,29.87,SSW,210,0.0,2.0,59,0.00,,,0.00,Wunderground v.1.15,2013-08-31 05:56:00,
2013-08-30 23:01:00,88.2,72.1,29.88,ESE,121,0.0,0.0,59,0.00,,,0.00,Wunderground v.1.15,2013-08-31 06:01:00,
2013-08-30 23:06:00,88.1,72.0,29.87,ESE,120,0.0,1.0,59,0.00,,,0.00,Wunderground v.1.15,2013-08-31 06:06:00,
2013-08-30 23:11:00,87.9,72.3,29.87,ESE,120,0.0,0.0,60,0.00,,,0.00,Wunderground v.1.15,2013-08-31 06:11:00,
2013-08-30 23:16:00,87.8,72.7,29.87,ESE,120,0.0,0.0,61,0.00,,,0.00,Wunderground v.1.15,2013-08-31 06:16:00,
2013-08-30 23:21:00,87.7,72.6,29.87,ESE,120,0.0,0.0,61,0.00,,,0.00,Wunderground v.1.15,2013-08-31 06:21:00,
2013-08-30 23:26:00,87.6,73.0,29.87,ESE,120,0.0,0.0,62,0.00,,,0.00,Wunderground v.1.15,2013-08-31 06:26:00,
2013-08-30 23:31:00,87.5,72.9,29.87,ESE,122,0.0,0.0,62,0.00,,,0.00,Wunderground v.1.15,2013-08-31 06:31:00,
2013-08-30 23:36:00,87.4,72.8,29.87,ESE,123,0.0,1.0,62,0.00,,,0.00,Wunderground v.1.15,2013-08-31 06:36:00,
2013-08-30 23:41:00,87.5,72.9,29.87,West,262,0.0,0.0,62,0.00,,,0.00,Wunderground v.1.15,2013-08-31 06:41:00,
2013-08-30 23:46:00,87.4,72.8,29.87,SE,128,0.0,1.0,62,0.00,,,0.00,Wunderground v.1.15,2013-08-31 06:46:00,
2013-08-30 23:51:00,87.0,73.3,29.87,West,261,1.0,2.0,64,0.00,,,0.00,Wunderground v.1.15,2013-08-31 06:51:00,
2013-08-30 23:56:00,86.2,73.5,29.87,WSW,256,0.0,2.0,66,0.00,,,0.00,Wunderground v.1.15,2013-08-31 06:56:00,